KMGEKVPC

Guest
Details From KMGE - DOBBINS ARB
To KVPC - CARTERSVILLE
Flight Number -
Tags generated
Created
Modified
Stats Distance 21 nm / 38 km
Max Altitude 0 ft / 0 m
Waypoints 2
Social Downloads 0
Likes 0
Share VATSIM

Download

Looking for another format? Having issues loading an existing format? Contact us
Advertisement - Login to hide

Notes

Basic altitude profile: - Ascent Rate: 2500ft/min - Ascent Speed: 250kts - Cruise Altitude: 35000ft - Cruise Speed: 420kts - Descent Rate: 1500ft/min - Descent Speed: 250kts Options: - Use NATs: yes - Use PACOTS: yes - Use low airways: yes - Use high airways: yes

Route

KMGE KVPC

ID Type Via Altitude (ft/m) Position (lat/lon) Dist (leg/tot) Name
O KMGE APT - 0 / 0 33.91528 / -84.51635 - / 0 nm DOBBINS ARB
O KVPC APT - 0 / 0 34.12315 / -84.84871 20 / 20 nm CARTERSVILLE

Altitude Profile

Advertisement - Login to hide

KMGE

Details ICAO KMGE (MGE)
Name DOBBINS ARB
Region United States
Timezone America/New_York (UTC-4.0)
Stats Elevation 1,068 ft / 326 m (AMSL)
Location 33.915300° -84.516300°
Runways 1
Magnetic Variation 5.178° W

METAR

KMGE 252056Z 30008KT 10SM FEW017 BKN030 BKN250 18/14 A2993 RMK AO2A SLP133 60015 T01790144 57018

Decode

TAF

TAF KMGE 252102Z 2521/2703 28010KT 9999 SCT010 BKN025 BKN250 QNH2980INS BECMG 2522/2523 29015G30KT 3200 TSRA BR SCT007 OVC020CB QNH2979INS BECMG 2601/2602 30010KT 9999 NSW SCT010 BKN020 QNH2984INS BECMG 2614/2615 35010KT 9999 VCSH SCT020 BKN040 QNH2991INS TX19/2522Z TN09/2612Z

Decode

Departure Runways

ID Width Length Bearing (true/mag) Surface Threshold Overrun Markings Lighting
11 300 ft / 91 m 9,986 ft / 3,044 m 106.30° / 111.48° CONCRETE 0 ft / 0 m 1,000 ft / 305 m PREC-APP EDGE THRESHOLD ALSF-I
29 300 ft / 91 m 9,986 ft / 3,044 m 286.32° / 291.49° CONCRETE 0 ft / 0 m 1,000 ft / 305 m PREC-APP EDGE THRESHOLD SALS REIL-OMNI

KVPC

Details ICAO KVPC
Name CARTERSVILLE
Region United States
Timezone America/New_York (UTC-4.0)
Stats Elevation 759 ft / 231 m (AMSL)
Location 34.123100° -84.848700°
Runways 1
Magnetic Variation 4.977° W

METAR

KVPC 252109Z AUTO 00000KT 10SM SCT021 SCT100 19/13 A2995 RMK AO2 T01890128

Decode

TAF

Not found

Destination Runways

ID Width Length Bearing (true/mag) Surface Threshold Overrun Markings Lighting
01 100 ft / 30 m 5,776 ft / 1,761 m 3.47° / 8.45° ASPHALT 740 ft / 226 m 0 ft / 0 m APP EDGE THRESHOLD
19 100 ft / 30 m 5,776 ft / 1,761 m 183.47° / 188.45° ASPHALT 0 ft / 0 m 0 ft / 0 m APP EDGE THRESHOLD REIL-OMNI

Approach Navaids

Runway Type Ident Frequency Range Bearing (true/mag) Slope Elevation
19 DME IVPC 110.35 MHz 18 nm / 33 km - - 759 ft / 231 m (AMSL)
19 LOC-LOC IVPC 110.35 MHz 18 nm / 33 km 183.47° / 188.45 ° - 759 ft / 231 m (AMSL)